Overview Statistics Trail Chart Weather Telemetry Raw packets
 

This is the latest recevied weather packets stored in our database for station/object GBTWP-2. If no packets are shown the sender has not sent any weather packets the latest 10 day(s).

<< 86 87 88 89 90 91 92 >>
Time Temp. Humidity Pressure Rain* Wind** Luminosity Snow
1788047520 23.33° C 68% 1021.8 hPa 0 mm - 6 W/m² -
1788047220 23.89° C 67% 1021.6 hPa 0 mm - 9 W/m² -
1788046920 23.89° C 67% 1022 hPa 0 mm - 11 W/m² -
1788046620 23.89° C 66% 1021.8 hPa 0 mm - 11 W/m² -
1788046320 23.89° C 66% 1021.8 hPa 0 mm - 14 W/m² -
1788046020 23.89° C 65% 1021.9 hPa 0 mm - 18 W/m² -
1788045720 23.89° C 65% 1021.7 hPa 0 mm - 28 W/m² -
1788045420 23.89° C 65% 1021.9 hPa 0 mm - 22 W/m² -
1788045120 24.44° C 64% 1021.7 hPa 0 mm - 21 W/m² -
1788044820 24.44° C 64% 1021.8 hPa 0 mm - 25 W/m² -
1788044519 24.44° C 64% 1021.8 hPa 0 mm - 30 W/m² -
1788044220 24.44° C 63% 1021.8 hPa 0 mm - 28 W/m² -
1788043920 24.44° C 63% 1021.9 hPa 0 mm - 28 W/m² -
1788043620 24.44° C 63% 1021.9 hPa 0 mm - 35 W/m² -
1788043320 24.44° C 63% 1021.9 hPa 0 mm - 41 W/m² -
1788043020 25° C 63% 1021.9 hPa 0 mm - 52 W/m² -
1788042720 25° C 63% 1022.1 hPa 0 mm - 65 W/m² -
1788042420 25° C 63% 1022.1 hPa 0 mm - 65 W/m² -
1788042120 25° C 63% 1022.3 hPa 0 mm - 55 W/m² -
1788041820 25° C 63% 1022.3 hPa 0 mm - 52 W/m² -
1788041520 25° C 62% 1022.2 hPa 0 mm - 55 W/m² -
1788041220 25° C 62% 1022.2 hPa 0 mm - 67 W/m² -
1788040920 25° C 62% 1022.3 hPa 0 mm - 57 W/m² -
1788040620 25° C 62% 1022.4 hPa 0 mm - 53 W/m² -
1788040320 25° C 63% 1022.3 hPa 0 mm - 63 W/m² -

* Rain latest hour (hover to see other rain measurements)
** Current wind speed in m/s (hover to see current wind gust speed)